Flag for Canada Weather past 2 weeks in Oakville, Ontario, Canada

Now
60 °F

Cool.


Feels Like: 60 °F
Forecast: 57 / 74 °F
Wind: 7 mph from West

Location: Burlington Piers

Current Time: Jul 25, 2014 at 5:44:19 AM

Latest Report: Jul 25, 2014 at 5:00 AM


Visibility: N/A

Pressure: 30.02 "Hg

Humidity: 75%

Dew point: 52 °F

Location of OakvilleLocation

Historic Weather in Oakville — Graph

°F

Oakville temperature yesterday

Maximum temperature yesterday: 69 °F (at 10:00 PM)
Minimum temperature yesterday: 60 °F (at 7:00 AM)
Average temperature yesterday: 64 °F

Past Weeks' High & Low Weather Summary

 TemperatureHumidityPressure
High83 °F (Jul 22, 7:00 PM)100% (Jul 21, 1:00 AM)30.25 "Hg (Jul 21, 1:00 AM)
Low53 °F (Jul 18, 6:00 AM)33% (Jul 17, 6:00 PM)29.66 "Hg (Jul 15, 10:00 AM)
Average66 °F73%30.01 "Hg
* Reported Jul 10 4:00 AM — Jul 25 4:00 AM, Oakville, Weather by CustomWeather, © 2014

Note: Actual official high and low records may vary slightly from our data, if they occured in-between our weather recording intervals... More about our weather records

Advertising

Oakville weather history for previous 24 hours

 ConditionsComfort  
Time TempWeatherWind HumidityBarometerVisibility
4:00 AM
Jul 25
62 °FCool.2 mph71%30.02 "HgN/A
3:00 AM62 °FCool.2 mph79%30.02 "HgN/A
2:00 AM63 °FMild.3 mph62%30.03 "HgN/A
1:00 AM65 °FMild.6 mph56%30.03 "HgN/A
12:00 AM65 °FMild.7 mph56%30.04 "HgN/A
11:00 PM
Jul 24
66 °FMild.3 mph65%30.03 "HgN/A
10:00 PM69 °FMild.7 mph60%30.01 "HgN/A
9:00 PM67 °FMild.3 mph64%29.99 "HgN/A
8:00 PM65 °FMild.5 mph71%29.98 "HgN/A
7:00 PM67 °FMild.10 mph53%29.99 "HgN/A
6:00 PM67 °FMild.9 mph53%30.00 "HgN/A
5:00 PM64 °FMild.10 mph67%30.01 "HgN/A
4:00 PM64 °FMild.10 mph66%30.03 "HgN/A
3:00 PM64 °FMild.10 mph62%30.04 "HgN/A
2:00 PM64 °FMild.9 mph57%30.05 "HgN/A
1:00 PM63 °FMild.8 mph59%30.06 "HgN/A
12:00 PM62 °FMild.8 mph69%30.08 "HgN/A
11:00 AM62 °FMild.8 mph67%30.08 "HgN/A
10:00 AM62 °FCool.8 mph64%30.07 "HgN/A
9:00 AM62 °FCool.7 mph64%30.07 "HgN/A
8:00 AM61 °FCool.6 mph63%30.07 "HgN/A
7:00 AM60 °FCool.7 mph66%30.05 "HgN/A
6:00 AM60 °FCool.12 mph67%30.04 "HgN/A
5:00 AM61 °FCool.13 mph66%30.03 "HgN/A
Weather by CustomWeather, © 2014

See weather overviewHow to use our weather pages